CT2IRK-11 Weather Reports


time (UTC)temp
C
wind
direction
speed
KPH
gust
KPH
rain 1hr
cm
rain 24hr
cm
rain mn
cm
humidity
%
barometer
mb
20200220082442 5 32 11.3 14.5 0.00 0.00 0.00 99 1018.5
20200220082254 5 45 11.3 14.5 0.00 0.00 0.00 99 1018.5
20200220081943 5 45 11.3 14.5 0.00 0.00 0.00 99 1018.5
20200220081755 5 45 9.7 14.5 0.00 0.00 0.00 99 1018.5
20200220081442 5 45 11.3 12.9 0.00 0.00 0.00 99 1018.3
20200220081255 5 45 9.7 11.3 0.00 0.00 0.00 99 1018.3
20200220080944 5 46 6.4 11.3 0.00 0.00 0.00 99 1018.3
20200220080754 5 22 9.7 11.3 0.00 0.00 0.00 99 1018.3
20200220080443 5 33 8.0 11.3 0.00 0.00 0.00 99 1018.3
20200220080256 5 41 6.4 11.3 0.00 0.00 0.00 99 1018.2
20200220075943 5 81 6.4 11.3 0.00 0.00 0.00 99 1018.2
20200220075755 5 4 4.8 11.3 0.00 0.00 0.00 99 1018.2
20200220075443 5 50 4.8 11.3 0.00 0.00 0.00 99 1018.2
20200220075255 5 22 3.2 11.3 0.00 0.00 0.00 99 1018.2
20200220074942 5 37 4.8 11.3 0.00 0.00 0.00 99 1018.2
20200220074754 5 68 4.8 11.3 0.00 0.00 0.00 99 1018.2
20200220074442 5 45 6.4 11.3 0.00 0.00 0.00 99 1018.2
20200220074255 5 73 6.4 11.3 0.00 0.00 0.00 99 1018.2
20200220073943 5 45 4.8 11.3 0.00 0.00 0.00 99 1018.1
20200220073756 5 58 8.0 11.3 0.00 0.00 0.00 99 1018.1
20200220073443 5 40 6.4 11.3 0.00 0.00 0.00 99 1018.1
20200220073254 5 68 8.0 11.3 0.00 0.00 0.00 99 1018.1
20200220072942 5 45 8.0 11.3 0.00 0.00 0.00 99 1018.1
20200220072755 5 54 8.0 11.3 0.00 0.00 0.00 99 1018.1
20200220072443 5 57 9.7 11.3 0.00 0.00 0.00 99 1018.1
20200220072255 5 45 8.0 11.3 0.00 0.00 0.00 99 1018.1
20200220071943 5 45 8.0 11.3 0.00 0.00 0.00 99 1018.1
20200220071754 5 45 8.0 11.3 0.00 0.00 0.00 99 1018.1
20200220071442 5 47 6.4 11.3 0.00 0.00 0.00 99 1018.1
20200220071254 5 64 4.8 11.3 0.00 0.00 0.00 99 1018.1
20200220070943 5 56 3.2 11.3 0.00 0.00 0.00 99 1018.1
20200220070755 5 22 3.2 11.3 0.00 0.00 0.00 99 1018.1
20200220070442 5 45 4.8 11.3 0.00 0.00 0.00 99 1018.1
20200220070255 5 41 4.8 11.3 0.00 0.00 0.00 99 1018.1
20200220065943 5 38 4.8 11.3 0.00 0.00 0.00 99 1018.1
20200220065753 5 36 3.2 11.3 0.00 0.00 0.00 99 1018.1
20200220065442 5 50 4.8 11.3 0.00 0.00 0.00 99 1018.1
20200220065254 5 45 6.4 11.3 0.00 0.00 0.00 99 1018.1
20200220064942 5 58 4.8 11.3 0.00 0.00 0.00 99 1018.1
20200220064755 5 42 4.8 11.3 0.00 0.00 0.00 99 1018.1
20200220064443 5 43 3.2 11.3 0.00 0.00 0.00 99 1018.1
20200220064255 5 40 3.2 11.3 0.00 0.00 0.00 99 1018.1
20200220063942 5 22 3.2 11.3 0.00 0.00 0.00 99 1018.0
20200220063754 5 22 3.2 11.3 0.00 0.00 0.00 99 1018.0
20200220063443 5 59 0.0 11.3 0.00 0.00 0.00 99 1018.0
20200220063253 5 45 0.0 11.3 0.00 0.00 0.00 99 1018.0
20200220062943 5 35 0.0 11.3 0.00 0.00 0.00 99 1018.0
20200220062755 5 22 0.0 11.3 0.00 0.00 0.00 99 1018.0
20200220062443 5 45 3.2 11.3 0.00 0.00 0.00 99 1018.0
20200220062255 5 36 3.2 11.3 0.00 0.00 0.00 99 1018.0
20200220061942 5 16 0.0 11.3 0.00 0.00 0.00 99 1018.0
20200220061754 5 45 0.0 11.3 0.00 0.00 0.00 99 1018.0
20200220061443 5 36 0.0 11.3 0.00 0.00 0.00 99 1018.0
20200220061255 5 43 0.0 11.3 0.00 0.00 0.00 99 1018.0
20200220060941 5 45 0.0 11.3 0.00 0.00 0.00 99 1018.0
20200220060754 5 45 0.0 11.3 0.00 0.00 0.00 99 1018.0
20200220060442 5 31 0.0 11.3 0.00 0.00 0.00 99 1018.0
20200220060254 5 45 3.2 11.3 0.00 0.00 0.00 99 1018.1
20200220055942 5 45 3.2 11.3 0.00 0.00 0.00 99 1018.1
20200220055755 5 45 4.8 11.3 0.00 0.00 0.00 99 1018.1
20200220055443 5 22 4.8 11.3 0.00 0.00 0.00 99 1018.1
20200220055254 5 31 4.8 11.3 0.00 0.00 0.00 99 1018.2
20200220054943 5 37 4.8 11.3 0.00 0.00 0.00 99 1018.2
20200220054755 5 45 4.8 11.3 0.00 0.00 0.00 99 1018.2
20200220054442 5 34 4.8 11.3 0.00 0.00 0.00 99 1018.2
20200220054255 5 43 4.8 11.3 0.00 0.00 0.00 99 1018.2
20200220053942 5 36 3.2 11.3 0.00 0.00 0.00 99 1018.2
20200220053755 5 36 3.2 11.3 0.00 0.00 0.00 99 1018.2
20200220053441 5 41 4.8 11.3 0.00 0.00 0.00 99 1018.2
20200220053254 5 45 4.8 11.3 0.00 0.00 0.00 99 1018.2
20200220052942 5 31 6.4 11.3 0.00 0.00 0.00 99 1018.2
20200220052755 5 59 6.4 11.3 0.00 0.00 0.00 99 1018.4
20200220052443 5 53 6.4 11.3 0.00 0.00 0.00 99 1018.4
20200220052253 5 56 8.0 11.3 0.00 0.00 0.00 99 1018.4
20200220051941 5 55 6.4 11.3 0.00 0.00 0.00 99 1018.4
20200220051754 5 58 6.4 11.3 0.00 0.00 0.00 99 1018.4
20200220051442 5 45 6.4 11.3 0.00 0.00 0.00 99 1018.4
20200220051255 5 17 9.7 11.3 0.00 0.00 0.00 99 1018.4
20200220050943 5 45 8.0 11.3 0.00 0.00 0.00 99 1018.4
20200220050753 5 55 6.4 11.3 0.00 0.00 0.00 99 1018.4
20200220050441 5 40 8.0 11.3 0.00 0.00 0.00 99 1018.4
20200220050254 5 54 9.7 11.3 0.00 0.00 0.00 99 1018.4
20200220045943 5 62 6.4 11.3 0.00 0.00 0.00 99 1018.4
20200220045753 6 50 6.4 11.3 0.00 0.00 0.00 99 1018.4
20200220045442 6 65 9.7 11.3 0.00 0.00 0.00 99 1018.4
20200220045254 6 72 9.7 11.3 0.00 0.00 0.00 99 1018.5
20200220044942 6 63 9.7 11.3 0.00 0.00 0.00 99 1018.6
20200220044754 6 59 8.0 9.7 0.00 0.00 0.00 99 1018.6
20200220044443 6 66 8.0 9.7 0.00 0.00 0.00 99 1018.6
20200220044253 6 45 9.7 9.7 0.00 0.00 0.00 99 1018.6
20200220043941 6 52 6.4 9.7 0.00 0.00 0.00 99 1018.6
20200220043754 6 62 8.0 9.7 0.00 0.00 0.00 99 1018.6
20200220043443 6 45 6.4 9.7 0.00 0.00 0.00 99 1018.6
20200220043253 6 90 8.0 9.7 0.00 0.00 0.00 99 1018.6
20200220042943 5 52 6.4 9.7 0.00 0.00 0.00 99 1018.6
20200220042753 5 45 6.4 9.7 0.00 0.00 0.00 99 1018.7
20200220042442 5 58 6.4 9.7 0.00 0.00 0.00 99 1018.7
20200220042255 5 68 4.8 9.7 0.00 0.00 0.00 99 1018.7
20200220041943 5 58 4.8 9.7 0.00 0.00 0.00 99 1018.7
20200220041753 5 47 4.8 9.7 0.00 0.00 0.00 99 1018.7
20200220041441 6 45 4.8 9.7 0.00 0.00 0.00 99 1018.7
20200220041254 6 22 3.2 9.7 0.00 0.00 0.00 99 1018.7
20200220040942 6 63 4.8 9.7 0.00 0.00 0.00 99 1018.7
20200220040755 6 47 4.8 9.7 0.00 0.00 0.00 99 1018.7
20200220040443 6 25 4.8 9.7 0.00 0.00 0.00 99 1018.7
20200220040253 6 32 4.8 9.7 0.00 0.00 0.00 99 1018.8
20200220035941 6 22 4.8 9.7 0.00 0.00 0.00 99 1018.8
20200220035754 6 31 6.4 9.7 0.00 0.00 0.00 99 1018.8
20200220035442 6 45 6.4 8.0 0.00 0.00 0.00 99 1018.8
20200220035255 6 40 6.4 8.0 0.00 0.00 0.00 99 1018.8
20200220034942 6 33 3.2 8.0 0.00 0.00 0.00 99 1018.7
20200220034753 6 44 4.8 8.0 0.00 0.00 0.00 99 1018.7
20200220034441 6 45 6.4 8.0 0.00 0.00 0.00 99 1018.7
20200220034254 6 61 4.8 8.0 0.00 0.00 0.00 99 1018.7
20200220033942 6 68 6.4 8.0 0.00 0.00 0.00 99 1018.9
20200220033754 6 45 6.4 8.0 0.00 0.00 0.00 99 1018.9
20200220033441 6 68 4.8 6.4 0.00 0.00 0.00 99 1018.9
20200220033254 6 49 4.8 6.4 0.00 0.00 0.00 99 1018.9
20200220032941 6 52 4.8 6.4 0.00 0.00 0.00 99 1018.9
20200220032753 5 68 4.8 6.4 0.00 0.00 0.00 99 1019.0
20200220032441 5 63 4.8 6.4 0.00 0.00 0.00 99 1019.0
20200220032253 5 45 3.2 6.4 0.00 0.00 0.00 99 1019.0
20200220031942 5 45 4.8 6.4 0.00 0.00 0.00 99 1019.0
20200220031755 5 57 3.2 6.4 0.00 0.00 0.00 99 1019.0
20200220031442 5 45 3.2 6.4 0.00 0.00 0.00 99 1019.2
20200220031255 5 31 3.2 6.4 0.00 0.00 0.00 99 1019.2
20200220030942 5 45 3.2 6.4 0.00 0.00 0.00 99 1019.2
20200220030754 5 31 3.2 6.4 0.00 0.00 0.00 99 1019.2
20200220030441 5 68 4.8 6.4 0.00 0.00 0.00 99 1019.2
20200220030253 5 45 3.2 6.4 0.00 0.00 0.00 99 1019.3
20200220025941 5 31 3.2 6.4 0.00 0.00 0.00 99 1019.3
20200220025753 5 45 3.2 6.4 0.00 0.00 0.00 99 1019.3
20200220025441 5 29 3.2 6.4 0.00 0.00 0.00 99 1019.3
20200220025253 5 22 3.2 6.4 0.00 0.00 0.00 99 1019.3
20200220024941 5 22 3.2 6.4 0.00 0.00 0.00 99 1019.3
20200220024753 6 34 1.6 6.4 0.00 0.00 0.00 99 1019.3
20200220024442 6 34 0.0 6.4 0.00 0.00 0.00 99 1019.3
20200220024254 6 45 3.2 6.4 0.00 0.00 0.00 99 1019.3
20200220023942 6 30 3.2 6.4 0.00 0.00 0.00 99 1019.5
20200220023753 6 45 3.2 6.4 0.00 0.00 0.00 99 1019.5
20200220023441 6 22 3.2 6.4 0.00 0.00 0.00 99 1019.5
20200220023253 6 45 4.8 6.4 0.00 0.00 0.00 99 1019.5
20200220022941 6 36 4.8 6.4 0.00 0.00 0.00 99 1019.5
20200220022754 6 23 4.8 6.4 0.00 0.00 0.00 99 1019.5
20200220022442 6 31 4.8 6.4 0.00 0.00 0.00 99 1019.5
20200220022253 6 45 6.4 6.4 0.00 0.00 0.00 99 1019.5
20200220021940 6 45 4.8 6.4 0.00 0.00 0.00 99 1019.5
20200220021753 6 36 4.8 6.4 0.00 0.00 0.00 99 1019.5
20200220021441 6 33 4.8 6.4 0.00 0.00 0.00 99 1019.6
20200220021254 6 32 4.8 6.4 0.00 0.00 0.00 99 1019.6
20200220020942 6 22 3.2 4.8 0.00 0.00 0.00 99 1019.6
20200220020752 6 41 4.8 4.8 0.00 0.00 0.00 99 1019.6
20200220020441 6 36 3.2 4.8 0.00 0.00 0.00 99 1019.6
20200220020254 6 44 3.2 4.8 0.00 0.00 0.00 99 1019.7
20200220015941 6 54 3.2 4.8 0.00 0.00 0.00 99 1019.7
20200220015753 6 54 0.0 3.2 0.00 0.00 0.00 99 1019.7
20200220015441 6 36 0.0 3.2 0.00 0.00 0.00 99 1019.7
20200220015253 6 45 0.0 3.2 0.00 0.00 0.00 99 1019.8
20200220014941 6 56 3.2 3.2 0.00 0.00 0.00 99 1019.9
20200220014754 6 45 1.6 3.2 0.00 0.00 0.00 99 1019.9
20200220014442 6 85 0.0 3.2 0.00 0.00 0.00 99 1019.9
20200220014252 6 45 0.0 3.2 0.00 0.00 0.00 99 1019.9
20200220013941 6 45 0.0 3.2 0.00 0.00 0.00 99 1019.8
20200220013753 6 22 0.0 3.2 0.00 0.00 0.00 99 1019.8
20200220013441 6 22 0.0 3.2 0.00 0.00 0.00 99 1019.8
20200220013253 6 30 0.0 3.2 0.00 0.00 0.00 99 1019.8
20200220012941 6 45 0.0 3.2 0.00 0.00 0.00 99 1019.8
20200220012753 6 27 0.0 3.2 0.00 0.00 0.00 99 1019.8
20200220012440 6 22 0.0 3.2 0.00 0.00 0.00 99 1019.8
20200220012253 6 22 0.0 3.2 0.00 0.00 0.00 99 1019.8
20200220011941 6 22 0.0 3.2 0.00 0.00 0.00 99 1019.8
20200220011753 6 22 0.0 3.2 0.00 0.00 0.00 99 1019.8
20200220011441 6 22 0.0 3.2 0.00 0.00 0.00 99 1019.9
20200220011253 6 22 0.0 3.2 0.00 0.00 0.00 99 1019.9
20200220010940 7 22 0.0 3.2 0.00 0.00 0.00 99 1019.9
20200220010753 7 22 0.0 3.2 0.00 0.00 0.00 99 1019.9
20200220010441 7 22 0.0 3.2 0.00 0.00 0.00 99 1019.9
20200220010253 7 22 0.0 3.2 0.00 0.00 0.00 99 1019.9
20200220005941 7 45 0.0 3.2 0.00 0.00 0.00 99 1019.9
20200220005754 7 41 0.0 3.2 0.00 0.00 0.00 99 1019.9
20200220005441 7 27 0.0 3.2 0.00 0.00 0.00 99 1019.9
20200220005253 7 22 0.0 3.2 0.00 0.00 0.00 99 1019.9
20200220004941 7 22 0.0 3.2 0.00 0.00 0.00 99 1019.9
20200220004753 7 358 0.0 3.2 0.00 0.00 0.00 99 1019.9
20200220004442 7 22 0.0 3.2 0.00 0.00 0.00 99 1019.9
20200220004254 7 22 0.0 3.2 0.00 0.00 0.00 99 1019.9
20200220003940 7 45 0.0 3.2 0.00 0.00 0.00 99 1020.0
20200220003753 7 89 0.0 3.2 0.00 0.00 0.00 99 1020.2
20200220003441 7 54 0.0 3.2 0.00 0.00 0.00 99 1020.2
20200220003254 7 264 0.0 3.2 0.00 0.00 0.00 99 1020.2
20200220002941 7 248 0.0 3.2 0.00 0.00 0.00 99 1020.2
20200220002753 7 236 0.0 3.2 0.00 0.00 0.00 99 1020.2
20200220002441 7 236 0.0 3.2 0.00 0.00 0.00 99 1020.2
20200220002253 7 248 0.0 3.2 0.00 0.00 0.00 99 1020.2
20200220001941 7 225 0.0 3.2 0.00 0.00 0.00 99 1020.2
20200220001754 7 222 0.0 3.2 0.00 0.00 0.00 99 1020.2
20200220001441 8 142 0.0 3.2 0.00 0.00 0.00 99 1020.3
20200220001254 8 123 0.0 3.2 0.00 0.00 0.00 99 1020.3
20200220000942 8 51 0.0 3.2 0.00 0.00 0.00 99 1020.3
20200220000753 8 68 0.0 3.2 0.00 0.00 0.00 99 1020.3
20200220000443 8 68 1.6 3.2 0.00 0.00 0.00 99 1020.3
20200220000254 8 45 0.0 0.0 0.00 0.00 0.00 99 1020.3
20200219235941 8 33 3.2 19.3 0.00 0.00 0.00 99 1020.3
20200219235752 8 22 3.2 19.3 0.00 0.00 0.00 99 1020.3
20200219235442 8 22 3.2 19.3 0.00 0.00 0.00 99 1020.3
20200219235253 8 25 3.2 19.3 0.00 0.00 0.00 99 1020.4
20200219234940 8 22 3.2 19.3 0.00 0.00 0.00 99 1020.5
20200219234753 8 26 3.2 19.3 0.00 0.00 0.00 99 1020.5
20200219234440 8 22 3.2 19.3 0.00 0.00 0.00 99 1020.5
20200219234252 9 11 3.2 19.3 0.00 0.00 0.00 99 1020.5
20200219233941 9 344 0.0 19.3 0.00 0.00 0.00 99 1020.6
20200219233753 9 9 3.2 19.3 0.00 0.00 0.00 99 1020.6
20200219233440 9 353 1.6 19.3 0.00 0.00 0.00 99 1020.6
20200219233252 10 8 4.8 19.3 0.00 0.00 0.00 99 1020.6
20200219232941 10 22 4.8 19.3 0.00 0.00 0.00 99 1020.6
20200219232753 10 32 4.8 19.3 0.00 0.00 0.00 99 1020.6
20200219232440 10 39 4.8 19.3 0.00 0.00 0.00 99 1020.7
20200219232254 10 35 4.8 19.3 0.00 0.00 0.00 99 1020.7
20200219231940 10 36 6.4 19.3 0.00 0.00 0.00 99 1020.7
20200219231752 10 45 6.4 19.3 0.00 0.00 0.00 99 1020.7
20200219231441 10 49 8.0 19.3 0.00 0.00 0.00 99 1020.8
20200219231252 10 42 6.4 19.3 0.00 0.00 0.00 99 1020.8
20200219230940 10 74 6.4 19.3 0.00 0.00 0.00 99 1020.8
20200219230753 10 57 4.8 19.3 0.00 0.00 0.00 99 1020.8
20200219230440 10 34 6.4 19.3 0.00 0.00 0.00 99 1020.8
20200219230254 10 59 9.7 19.3 0.00 0.00 0.00 99 1020.9
20200219225941 9 65 9.7 19.3 0.00 0.00 0.00 99 1020.9
20200219225752 9 68 9.7 19.3 0.00 0.00 0.00 99 1020.9
20200219225439 9 40 9.7 19.3 0.00 0.00 0.00 99 1020.9
20200219225253 9 50 9.7 19.3 0.00 0.00 0.00 99 1020.9
20200219224940 9 62 9.7 19.3 0.00 0.00 0.00 99 1021.0
20200219224753 9 63 9.7 19.3 0.00 0.00 0.00 99 1021.0
20200219224440 9 68 8.0 19.3 0.00 0.00 0.00 99 1021.0
20200219224252 9 72 8.0 19.3 0.00 0.00 0.00 99 1021.0
20200219223941 9 22 8.0 19.3 0.00 0.00 0.00 99 1021.0
20200219223753 9 32 6.4 19.3 0.00 0.00 0.00 99 1021.0
20200219223440 9 34 8.0 19.3 0.00 0.00 0.00 99 1021.0
20200219223253 9 59 6.4 19.3 0.00 0.00 0.00 99 1021.0
20200219222940 9 45 8.0 19.3 0.00 0.00 0.00 99 1021.0
20200219222752 9 45 8.0 19.3 0.00 0.00 0.00 99 1021.1
20200219222441 8 52 8.0 19.3 0.00 0.00 0.00 99 1021.1
20200219222252 8 59 6.4 19.3 0.00 0.00 0.00 99 1021.1
20200219221939 8 33 6.4 19.3 0.00 0.00 0.00 99 1021.1
20200219221752 8 22 4.8 19.3 0.00 0.00 0.00 99 1021.1
20200219221441 8 45 4.8 19.3 0.00 0.00 0.00 99 1021.0
20200219221252 8 22 4.8 19.3 0.00 0.00 0.00 99 1021.0
20200219220941 8 45 3.2 19.3 0.00 0.00 0.00 99 1021.0
20200219220753 8 35 3.2 19.3 0.00 0.00 0.00 99 1021.0
20200219220440 8 45 3.2 19.3 0.00 0.00 0.00 99 1021.0
20200219220253 8 20 3.2 19.3 0.00 0.00 0.00 99 1021.0
20200219215940 8 22 4.8 19.3 0.00 0.00 0.00 99 1021.0
20200219215752 8 45 3.2 19.3 0.00 0.00 0.00 99 1021.0
20200219215440 8 40 0.0 19.3 0.00 0.00 0.00 99 1021.0
20200219215252 9 45 0.0 19.3 0.00 0.00 0.00 99 1021.0
20200219214941 9 34 0.0 19.3 0.00 0.00 0.00 99 1021.0
20200219214753 9 22 0.0 19.3 0.00 0.00 0.00 99 1021.0
20200219214440 9 30 0.0 19.3 0.00 0.00 0.00 99 1021.0
20200219214251 9 34 1.6 19.3 0.00 0.00 0.00 99 1021.0
20200219213941 9 34 3.2 19.3 0.00 0.00 0.00 99 1021.0
20200219213752 9 44 3.2 19.3 0.00 0.00 0.00 99 1021.1
20200219213441 9 22 0.0 19.3 0.00 0.00 0.00 99 1021.1
20200219213252 9 37 1.6 19.3 0.00 0.00 0.00 99 1021.1
20200219212940 9 22 3.2 19.3 0.00 0.00 0.00 99 1021.1
20200219212753 10 22 3.2 19.3 0.00 0.00 0.00 99 1021.0
20200219212440 10 17 1.6 19.3 0.00 0.00 0.00 99 1021.0
20200219212252 10 22 1.6 19.3 0.00 0.00 0.00 99 1021.0
20200219211941 10 45 0.0 19.3 0.00 0.00 0.00 99 1021.0
20200219211751 10 45 0.0 19.3 0.00 0.00 0.00 99 1021.0
20200219211440 10 36 0.0 19.3 0.00 0.00 0.00 99 1021.0
20200219211253 10 58 0.0 19.3 0.00 0.00 0.00 99 1021.0
20200219210940 10 34 0.0 19.3 0.00 0.00 0.00 99 1021.0
20200219210753 10 292 0.0 19.3 0.00 0.00 0.00 99 1021.0
20200219210439 10 350 3.2 19.3 0.00 0.00 0.00 99 1021.0
20200219210252 10 327 3.2 19.3 0.00 0.00 0.00 99 1021.1
20200219205939 10 315 3.2 19.3 0.00 0.00 0.00 99 1021.1
20200219205752 10 333 0.0 19.3 0.00 0.00 0.00 99 1021.1
20200219205441 10 339 0.0 19.3 0.00 0.00 0.00 99 1021.1
20200219205251 10 338 0.0 19.3 0.00 0.00 0.00 99 1021.1
20200219204940 10 37 0.0 19.3 0.00 0.00 0.00 99 1021.1
20200219204753 10 41 0.0 19.3 0.00 0.00 0.00 99 1021.1
20200219204440 10 42 0.0 19.3 0.00 0.00 0.00 99 1021.1
20200219204253 11 24 0.0 19.3 0.00 0.00 0.00 99 1021.1
20200219203940 11 28 0.0 19.3 0.00 0.00 0.00 99 1021.2
20200219203752 11 22 0.0 19.3 0.00 0.00 0.00 99 1021.2
20200219203439 11 13 0.0 19.3 0.00 0.00 0.00 99 1021.2
20200219203251 11 22 0.0 19.3 0.00 0.00 0.00 99 1021.2
20200219202941 11 11 0.0 19.3 0.00 0.00 0.00 99 1021.2
20200219202751 11 19 0.0 19.3 0.00 0.00 0.00 99 1021.1
20200219202441 12 315 0.0 19.3 0.00 0.00 0.00 99 1021.1
20200219202253 12 22 0.0 19.3 0.00 0.00 0.00 99 1021.1
20200219201940 12 289 0.0 19.3 0.00 0.00 0.00 99 1021.1
20200219201752 12 272 0.0 19.3 0.00 0.00 0.00 99 1021.1
20200219201441 12 225 0.0 19.3 0.00 0.00 0.00 99 1021.1
20200219201251 12 211 0.0 19.3 0.00 0.00 0.00 99 1021.1
20200219200939 13 248 0.0 19.3 0.00 0.00 0.00 99 1021.1
20200219200752 13 236 1.6 19.3 0.00 0.00 0.00 99 1021.1
20200219200440 13 248 3.2 19.3 0.00 0.00 0.00 99 1021.1
20200219200252 14 256 3.2 19.3 0.00 0.00 0.00 99 1021.0
20200219195940 15 259 3.2 19.3 0.00 0.00 0.00 99 1021.0
20200219195751 15 193 3.2 19.3 0.00 0.00 0.00 99 1021.0
20200219195439 16 84 6.4 19.3 0.00 0.00 0.00 99 1021.0
20200219195252 16 78 6.4 19.3 0.00 0.00 0.00 99 1021.0
20200219194940 16 137 6.4 19.3 0.00 0.00 0.00 99 1021.2
20200219194752 16 90 8.0 19.3 0.00 0.00 0.00 99 1021.2
20200219194440 16 90 9.7 19.3 0.00 0.00 0.00 99 1021.2
20200219194253 16 93 8.0 19.3 0.00 0.00 0.00 99 1021.2
20200219193939 16 64 9.7 19.3 0.00 0.00 0.00 99 1021.2
20200219193751 16 90 9.7 19.3 0.00 0.00 0.00 99 1021.2
20200219193439 16 107 9.7 19.3 0.00 0.00 0.00 99 1021.2
20200219193252 16 89 9.7 19.3 0.00 0.00 0.00 99 1021.2
20200219192940 16 112 8.0 19.3 0.00 0.00 0.00 99 1021.2
20200219192752 16 98 9.7 19.3 0.00 0.00 0.00 99 1021.3
20200219192439 16 90 9.7 19.3 0.00 0.00 0.00 99 1021.3
20200219192251 16 90 8.0 19.3 0.00 0.00 0.00 99 1021.3
20200219191940 16 69 9.7 19.3 0.00 0.00 0.00 99 1021.3
20200219191753 16 90 8.0 19.3 0.00 0.00 0.00 99 1021.3
20200219191440 16 69 11.3 19.3 0.00 0.00 0.00 99 1021.3
20200219191252 16 112 9.7 19.3 0.00 0.00 0.00 99 1021.3
20200219190939 16 100 9.7 19.3 0.00 0.00 0.00 99 1021.3
20200219190752 16 97 11.3 19.3 0.00 0.00 0.00 99 1021.3
20200219190440 16 90 8.0 19.3 0.00 0.00 0.00 99 1021.3
20200219190252 16 103 8.0 19.3 0.00 0.00 0.00 99 1021.3
20200219185940 16 84 9.7 19.3 0.00 0.00 0.00 99 1021.3
20200219185752 16 79 8.0 19.3 0.00 0.00 0.00 99 1021.3
20200219185439 16 112 9.7 19.3 0.00 0.00 0.00 99 1021.3
20200219185251 16 112 9.7 19.3 0.00 0.00 0.00 99 1021.3
20200219184940 16 112 8.0 19.3 0.00 0.00 0.00 99 1021.3
20200219184751 16 90 8.0 19.3 0.00 0.00 0.00 99 1021.3
20200219184439 16 55 6.4 19.3 0.00 0.00 0.00 99 1021.3
20200219184251 16 94 6.4 19.3 0.00 0.00 0.00 99 1021.3
20200219183940 16 90 6.4 19.3 0.00 0.00 0.00 99 1021.1
20200219183752 16 90 4.8 19.3 0.00 0.00 0.00 99 1021.1
20200219183440 16 103 8.0 19.3 0.00 0.00 0.00 99 1021.1
20200219183251 16 85 6.4 19.3 0.00 0.00 0.00 99 1021.1
20200219182939 16 69 4.8 19.3 0.00 0.00 0.00 99 1021.1
20200219182751 16 68 4.8 19.3 0.00 0.00 0.00 99 1021.1
20200219182440 16 58 4.8 19.3 0.00 0.00 0.00 99 1021.1
20200219182252 16 59 4.8 19.3 0.00 0.00 0.00 99 1021.1
20200219181940 17 47 6.4 19.3 0.00 0.00 0.00 99 1021.1
20200219181753 17 45 4.8 19.3 0.00 0.00 0.00 99 1021.1
20200219181439 17 64 6.4 19.3 0.00 0.00 0.00 99 1021.2
20200219181251 17 45 4.8 19.3 0.00 0.00 0.00 99 1021.2
20200219180939 17 52 6.4 19.3 0.00 0.00 0.00 99 1021.2
20200219180752 17 45 4.8 19.3 0.00 0.00 0.00 99 1021.2
20200219180440 17 45 4.8 19.3 0.00 0.00 0.00 99 1021.2
20200219180252 18 54 4.8 19.3 0.00 0.00 0.00 99 1021.2
20200219175938 18 45 4.8 19.3 0.00 0.00 0.00 99 1021.2
20200219175751 18 58 6.4 19.3 0.00 0.00 0.00 99 1021.2
20200219175439 18 45 6.4 19.3 0.00 0.00 0.00 99 1021.2
20200219175252 18 58 4.8 19.3 0.00 0.00 0.00 99 1021.1
20200219174940 18 59 4.8 19.3 0.00 0.00 0.00 99 1021.1
20200219174752 18 45 4.8 19.3 0.00 0.00 0.00 99 1021.1
20200219174439 18 38 3.2 19.3 0.00 0.00 0.00 99 1021.1
20200219174251 18 59 4.8 19.3 0.00 0.00 0.00 99 1021.1
20200219173939 18 68 6.4 19.3 0.00 0.00 0.00 99 1021.2
20200219173752 18 81 8.0 19.3 0.00 0.00 0.00 99 1021.2
20200219173439 18 62 8.0 19.3 0.00 0.00 0.00 99 1021.2
20200219173252 18 45 8.0 19.3 0.00 0.00 0.00 99 1021.2
20200219172940 18 55 8.0 19.3 0.00 0.00 0.00 99 1021.2
20200219172751 18 45 8.0 19.3 0.00 0.00 0.00 99 1021.2
20200219172439 19 53 9.7 19.3 0.00 0.00 0.00 99 1021.2
20200219172251 19 28 9.7 19.3 0.00 0.00 0.00 99 1021.2
20200219171939 19 53 6.4 19.3 0.00 0.00 0.00 99 1021.2
20200219171752 19 54 8.0 19.3 0.00 0.00 0.00 99 1021.2
20200219171440 19 59 8.0 19.3 0.00 0.00 0.00 99 1021.1
20200219171250 19 34 6.4 19.3 0.00 0.00 0.00 99 1021.1
20200219170939 19 45 9.7 19.3 0.00 0.00 0.00 99 1021.1
20200219170751 19 34 9.7 19.3 0.00 0.00 0.00 99 1021.1
20200219170439 19 58 8.0 19.3 0.00 0.00 0.00 99 1021.1
20200219170252 19 45 11.3 19.3 0.00 0.00 0.00 99 1021.1
20200219165940 19 58 8.0 19.3 0.00 0.00 0.00 99 1021.1
20200219165750 19 40 6.4 19.3 0.00 0.00 0.00 99 1021.1
20200219165440 19 41 9.7 19.3 0.00 0.00 0.00 99 1021.1
20200219165252 19 39 8.0 19.3 0.00 0.00 0.00 99 1021.1
20200219164940 19 45 9.7 19.3 0.00 0.00 0.00 99 1021.1
20200219164750 19 47 6.4 19.3 0.00 0.00 0.00 99 1021.1
20200219164439 20 40 8.0 19.3 0.00 0.00 0.00 99 1021.1
20200219164251 20 59 11.3 19.3 0.00 0.00 0.00 99 1021.1
20200219163939 20 68 8.0 19.3 0.00 0.00 0.00 99 1021.3
20200219163752 20 72 8.0 19.3 0.00 0.00 0.00 99 1021.3
20200219163440 20 21 4.8 19.3 0.00 0.00 0.00 99 1021.3
20200219163250 20 76 6.4 19.3 0.00 0.00 0.00 99 1021.3
20200219162938 20 11 11.3 19.3 0.00 0.00 0.00 99 1021.3
20200219162751 20 40 9.7 19.3 0.00 0.00 0.00 99 1021.3
20200219162439 20 28 9.7 19.3 0.00 0.00 0.00 99 1021.3
20200219162252 20 35 11.3 19.3 0.00 0.00 0.00 99 1021.3
20200219161940 20 69 9.7 19.3 0.00 0.00 0.00 99 1021.3
20200219161752 20 45 8.0 19.3 0.00 0.00 0.00 99 1021.3
20200219161439 20 22 6.4 19.3 0.00 0.00 0.00 99 1021.3
20200219161252 20 79 8.0 19.3 0.00 0.00 0.00 99 1021.3
20200219160939 20 79 6.4 19.3 0.00 0.00 0.00 99 1021.3
20200219160752 20 72 16.1 19.3 0.00 0.00 0.00 99 1021.3
20200219160439 20 45 9.7 17.7 0.00 0.00 0.00 99 1021.3
20200219160252 20 59 11.3 17.7 0.00 0.00 0.00 99 1021.5
20200219155938 20 90 9.7 17.7 0.00 0.00 0.00 99 1021.5
20200219155750 20 64 11.3 17.7 0.00 0.00 0.00 99 1021.5
20200219155439 20 48 11.3 17.7 0.00 0.00 0.00 99 1021.5
20200219155251 20 54 9.7 17.7 0.00 0.00 0.00 99 1021.5
20200219154939 20 68 8.0 17.7 0.00 0.00 0.00 99 1021.6
20200219154752 20 68 11.3 17.7 0.00 0.00 0.00 99 1021.6
20200219154438 20 75 9.7 17.7 0.00 0.00 0.00 99 1021.6
20200219154250 20 57 11.3 17.7 0.00 0.00 0.00 99 1021.6
20200219153939 20 78 4.8 17.7 0.00 0.00 0.00 99 1021.7
20200219153751 20 90 6.4 17.7 0.00 0.00 0.00 99 1021.7
20200219153438 20 46 6.4 17.7 0.00 0.00 0.00 99 1021.7
20200219153250 20 95 8.0 17.7 0.00 0.00 0.00 99 1021.7
20200219152940 20 83 6.4 17.7 0.00 0.00 0.00 99 1021.7
20200219152750 20 31 8.0 17.7 0.00 0.00 0.00 99 1021.8
20200219152439 20 80 8.0 17.7 0.00 0.00 0.00 99 1021.8
20200219152250 20 55 11.3 17.7 0.00 0.00 0.00 99 1021.8
20200219151938 20 60 12.9 17.7 0.00 0.00 0.00 99 1021.8
20200219151750 20 22 8.0 17.7 0.00 0.00 0.00 99 1021.8
20200219151438 20 24 6.4 17.7 0.00 0.00 0.00 99 1021.9
20200219151251 20 53 8.0 17.7 0.00 0.00 0.00 99 1021.9
20200219150939 20 79 8.0 17.7 0.00 0.00 0.00 99 1021.9
20200219150750 20 57 8.0 17.7 0.00 0.00 0.00 99 1021.9
20200219150440 20 354 6.4 17.7 0.00 0.00 0.00 99 1021.9
20200219150250 20 34 6.4 17.7 0.00 0.00 0.00 99 1022.1
20200219145939 20 22 8.0 17.7 0.00 0.00 0.00 99 1022.1
20200219145750 20 24 8.0 17.7 0.00 0.00 0.00 99 1022.1
20200219145439 20 346 9.7 17.7 0.00 0.00 0.00 99 1022.1
20200219145251 20 54 8.0 17.7 0.00 0.00 0.00 99 1022.4
20200219144939 20 32 8.0 17.7 0.00 0.00 0.00 99 1022.4
20200219144750 20 66 9.7 17.7 0.00 0.00 0.00 99 1022.4
20200219144438 20 75 8.0 17.7 0.00 0.00 0.00 99 1022.4
20200219144251 20 72 11.3 17.7 0.00 0.00 0.00 99 1022.4
20200219143939 20 65 9.7 17.7 0.00 0.00 0.00 99 1022.5
20200219143751 20 11 6.4 17.7 0.00 0.00 0.00 99 1022.5
20200219143439 20 69 9.7 17.7 0.00 0.00 0.00 99 1022.5
20200219143251 20 32 9.7 17.7 0.00 0.00 0.00 99 1022.5
20200219142938 20 354 6.4 17.7 0.00 0.00 0.00 99 1022.5
20200219142750 20 22 9.7 17.7 0.00 0.00 0.00 99 1022.6
20200219142438 20 90 11.3 17.7 0.00 0.00 0.00 99 1022.7
20200219142250 20 48 9.7 17.7 0.00 0.00 0.00 99 1022.7
20200219141939 20 51 9.7 17.7 0.00 0.00 0.00 99 1022.7
20200219141751 20 56 4.8 17.7 0.00 0.00 0.00 99 1022.7
20200219141439 20 68 12.9 17.7 0.00 0.00 0.00 99 1022.8
20200219141250 20 45 9.7 17.7 0.00 0.00 0.00 99 1022.8
20200219140937 20 80 6.4 17.7 0.00 0.00 0.00 99 1022.8
20200219140750 20 57 8.0 17.7 0.00 0.00 0.00 99 1022.8
20200219140439 20 57 14.5 17.7 0.00 0.00 0.00 99 1022.8
20200219140250 20 10 9.7 17.7 0.00 0.00 0.00 99 1023.2
20200219135937 20 68 8.0 17.7 0.00 0.00 0.00 99 1023.2
20200219135750 20 74 9.7 17.7 0.00 0.00 0.00 99 1023.2
20200219135439 20 60 11.3 17.7 0.00 0.00 0.00 99 1023.2
20200219135250 20 68 12.9 17.7 0.00 0.00 0.00 99 1023.3
20200219134938 20 68 11.3 17.7 0.00 0.00 0.00 99 1023.3
20200219134750 20 56 11.3 17.7 0.00 0.00 0.00 99 1023.3
20200219134437 20 68 9.7 17.7 0.00 0.00 0.00 99 1023.3
20200219134251 20 51 11.3 17.7 0.00 0.00 0.00 99 1023.3
20200219133938 20 45 14.5 17.7 0.00 0.00 0.00 99 1023.4
20200219133749 20 57 12.9 17.7 0.00 0.00 0.00 99 1023.4
20200219133438 20 350 8.0 17.7 0.00 0.00 0.00 99 1023.4
20200219133249 20 64 8.0 17.7 0.00 0.00 0.00 99 1023.4
20200219132939 20 65 12.9 17.7 0.00 0.00 0.00 99 1023.4
20200219132750 20 68 6.4 17.7 0.00 0.00 0.00 99 1023.7
20200219132437 20 23 12.9 17.7 0.00 0.00 0.00 99 1023.7
20200219132251 20 45 11.3 17.7 0.00 0.00 0.00 99 1023.7
20200219131938 20 93 11.3 17.7 0.00 0.00 0.00 99 1023.7
20200219131751 20 68 11.3 17.7 0.00 0.00 0.00 99 1023.7
20200219131438 20 46 9.7 17.7 0.00 0.00 0.00 99 1023.8
20200219131250 20 49 8.0 17.7 0.00 0.00 0.00 99 1023.8
20200219130938 19 69 6.4 17.7 0.00 0.00 0.00 99 1023.8
20200219130751 20 75 9.7 17.7 0.00 0.00 0.00 99 1023.8
20200219130437 19 101 8.0 17.7 0.00 0.00 0.00 99 1023.8
20200219130251 19 73 4.8 17.7 0.00 0.00 0.00 99 1024.0
20200219125938 19 43 8.0 17.7 0.00 0.00 0.00 99 1024.0
20200219125750 19 68 12.9 17.7 0.00 0.00 0.00 99 1024.0
20200219125439 19 60 14.5 17.7 0.00 0.00 0.00 99 1024.0
20200219125250 19 25 9.7 17.7 0.00 0.00 0.00 99 1024.1
20200219124937 19 67 8.0 17.7 0.00 0.00 0.00 99 1024.3
20200219124751 19 77 9.7 17.7 0.00 0.00 0.00 99 1024.3
20200219124438 19 49 9.7 17.7 0.00 0.00 0.00 99 1024.3
20200219124250 19 101 8.0 17.7 0.00 0.00 0.00 99 1024.3
20200219123939 19 55 9.7 17.7 0.00 0.00 0.00 99 1024.4
20200219123750 19 67 12.9 17.7 0.00 0.00 0.00 99 1024.4
20200219123437 19 90 8.0 17.7 0.00 0.00 0.00 99 1024.4
20200219123251 19 99 6.4 17.7 0.00 0.00 0.00 99 1024.4
20200219122938 19 87 9.7 17.7 0.00 0.00 0.00 99 1024.4
20200219122749 18 80 9.7 17.7 0.00 0.00 0.00 99 1024.7
20200219122439 18 109 6.4 17.7 0.00 0.00 0.00 99 1024.7
20200219122250 18 102 6.4 17.7 0.00 0.00 0.00 99 1024.7
20200219121937 19 45 9.7 17.7 0.00 0.00 0.00 99 1024.7
20200219121750 19 69 6.4 17.7 0.00 0.00 0.00 99 1024.7
20200219121438 18 22 3.2 17.7 0.00 0.00 0.00 99 1024.9
20200219121249 18 22 3.2 17.7 0.00 0.00 0.00 99 1024.9
20200219120938 18 22 3.2 17.7 0.00 0.00 0.00 99 1024.9
20200219120750 18 90 6.4 17.7 0.00 0.00 0.00 99 1024.9
20200219120439 18 84 11.3 17.7 0.00 0.00 0.00 99 1025.1
20200219120249 18 90 6.4 17.7 0.00 0.00 0.00 99 1025.1
20200219115939 18 46 8.0 17.7 0.00 0.00 0.00 99 1025.1
20200219115749 18 99 9.7 17.7 0.00 0.00 0.00 99 1025.1
20200219115439 18 81 11.3 17.7 0.00 0.00 0.00 99 1025.1
20200219115251 18 81 9.7 17.7 0.00 0.00 0.00 99 1025.2
20200219114938 18 63 4.8 17.7 0.00 0.00 0.00 99 1025.4
20200219114749 18 92 8.0 17.7 0.00 0.00 0.00 99 1025.4
20200219114438 17 123 4.8 17.7 0.00 0.00 0.00 99 1025.4
20200219114249 17 90 3.2 17.7 0.00 0.00 0.00 99 1025.4
20200219113938 17 69 4.8 17.7 0.00 0.00 0.00 99 1025.4
20200219113751 17 33 4.8 17.7 0.00 0.00 0.00 99 1025.4
20200219113437 17 80 8.0 17.7 0.00 0.00 0.00 99 1025.4
20200219113249 17 54 3.2 17.7 0.00 0.00 0.00 99 1025.4
20200219112938 17 76 4.8 17.7 0.00 0.00 0.00 99 1025.4
20200219112750 17 30 8.0 17.7 0.00 0.00 0.00 99 1025.6
20200219112437 17 24 9.7 17.7 0.00 0.00 0.00 99 1025.6
20200219112249 17 49 14.5 17.7 0.00 0.00 0.00 99 1025.6
20200219111937 17 36 12.9 17.7 0.00 0.00 0.00 99 1025.6
20200219111750 16 10 11.3 17.7 0.00 0.00 0.00 99 1025.6
20200219111438 16 13 8.0 17.7 0.00 0.00 0.00 99 1025.8
20200219111251 16 31 9.7 17.7 0.00 0.00 0.00 99 1025.8
20200219110937 16 34 6.4 17.7 0.00 0.00 0.00 99 1025.8
20200219110749 16 72 6.4 17.7 0.00 0.00 0.00 99 1025.8
20200219110437 16 80 6.4 17.7 0.00 0.00 0.00 99 1025.9
20200219110250 16 40 4.8 17.7 0.00 0.00 0.00 99 1025.9
20200219105938 16 25 11.3 17.7 0.00 0.00 0.00 99 1025.9
20200219105750 16 56 9.7 17.7 0.00 0.00 0.00 99 1025.9
20200219105438 15 73 6.4 17.7 0.00 0.00 0.00 99 1025.9
20200219105250 15 59 11.3 17.7 0.00 0.00 0.00 99 1025.9
20200219104937 15 90 8.0 17.7 0.00 0.00 0.00 99 1026.3
20200219104749 15 84 11.3 17.7 0.00 0.00 0.00 99 1026.3
20200219104438 15 116 9.7 17.7 0.00 0.00 0.00 99 1026.3
20200219104250 14 103 4.8 17.7 0.00 0.00 0.00 99 1026.3
20200219103938 13 14 6.4 17.7 0.00 0.00 0.00 99 1026.4
20200219103749 13 12 4.8 17.7 0.00 0.00 0.00 99 1026.4
20200219103437 12 7 4.8 17.7 0.00 0.00 0.00 99 1026.4
20200219103249 12 281 3.2 17.7 0.00 0.00 0.00 99 1026.4
20200219102938 12 65 4.8 17.7 0.00 0.00 0.00 99 1026.4
20200219102750 12 45 4.8 17.7 0.00 0.00 0.00 99 1026.5
20200219102438 12 34 4.8 17.7 0.00 0.00 0.00 99 1026.5
20200219102249 11 30 8.0 17.7 0.00 0.00 0.00 99 1026.5
20200219101937 11 36 8.0 17.7 0.00 0.00 0.00 99 1026.5
20200219101749 11 32 8.0 17.7 0.00 0.00 0.00 99 1026.5
20200219101437 11 22 8.0 17.7 0.00 0.00 0.00 99 1026.7
20200219101250 11 34 6.4 17.7 0.00 0.00 0.00 99 1026.7
20200219100937 11 34 8.0 17.7 0.00 0.00 0.00 99 1026.7
20200219100750 11 22 9.7 17.7 0.00 0.00 0.00 99 1026.7
20200219100437 11 35 9.7 17.7 0.00 0.00 0.00 99 1026.8
20200219100250 10 22 9.7 17.7 0.00 0.00 0.00 99 1027.0
20200219095938 10 23 11.3 17.7 0.00 0.00 0.00 99 1027.0
20200219095749 10 56 12.9 17.7 0.00 0.00 0.00 99 1027.0
20200219095437 10 22 12.9 17.7 0.00 0.00 0.00 99 1027.0
20200219095249 10 16 9.7 17.7 0.00 0.00 0.00 99 1027.0
20200219094937 10 77 12.9 17.7 0.00 0.00 0.00 99 1026.8
20200219094750 10 49 12.9 17.7 0.00 0.00 0.00 99 1026.8
20200219094438 10 22 11.3 17.7 0.00 0.00 0.00 99 1026.8
20200219094248 10 22 11.3 17.7 0.00 0.00 0.00 99 1026.8
20200219093937 10 25 11.3 17.7 0.00 0.00 0.00 99 1026.8
20200219093749 9 42 11.3 17.7 0.00 0.00 0.00 99 1026.8
20200219093437 9 51 12.9 17.7 0.00 0.00 0.00 99 1026.8
20200219093249 9 31 12.9 17.7 0.00 0.00 0.00 99 1026.8
20200219092938 8 45 14.5 17.7 0.00 0.00 0.00 99 1026.8
20200219092750 8 34 14.5 17.7 0.00 0.00 0.00 99 1026.8
20200219092437 8 45 14.5 17.7 0.00 0.00 0.00 99 1026.7
20200219092249 8 24 11.3 17.7 0.00 0.00 0.00 99 1026.7
20200219091937 8 59 11.3 17.7 0.00 0.00 0.00 99 1026.7
20200219091749 8 56 9.7 17.7 0.00 0.00 0.00 99 1026.7
20200219091436 8 44 8.0 17.7 0.00 0.00 0.00 99 1026.6
20200219091249 8 39 9.7 17.7 0.00 0.00 0.00 99 1026.6
20200219090937 8 31 11.3 17.7 0.00 0.00 0.00 99 1026.6
20200219090750 8 35 12.9 17.7 0.00 0.00 0.00 99 1026.6
20200219090438 8 31 12.9 17.7 0.00 0.00 0.00 99 1026.6
20200219090250 8 24 12.9 17.7 0.00 0.00 0.00 99 1026.5
20200219085937 8 34 12.9 17.7 0.00 0.00 0.00 99 1026.5
20200219085749 8 22 11.3 17.7 0.00 0.00 0.00 99 1026.5
20200219085437 8 35 11.3 17.7 0.00 0.00 0.00 99 1026.5
20200219085250 8 31 11.3 17.7 0.00 0.00 0.00 99 1026.4
20200219084937 8 42 12.9 17.7 0.00 0.00 0.00 99 1026.2
20200219084750 8 31 11.3 17.7 0.00 0.00 0.00 99 1026.2
20200219084436 8 23 11.3 17.7 0.00 0.00 0.00 99 1026.2
20200219084249 7 44 9.7 17.7 0.00 0.00 0.00 99 1026.2
20200219083937 7 34 11.3 17.7 0.00 0.00 0.00 99 1026.0
20200219083749 7 23 9.7 17.7 0.00 0.00 0.00 99 1026.0
20200219083437 7 32 8.0 17.7 0.00 0.00 0.00 99 1026.0
20200219083250 7 36 8.0 17.7 0.00 0.00 0.00 99 1026.0
20200219082936 7 45 11.3 17.7 0.00 0.00 0.00 99 1026.0
20200219082749 7 59 12.9 17.7 0.00 0.00 0.00 99 1025.9